Flag for U.S.A. Weather past 2 weeks in St. Paul, Minnesota, U.S.A.

Now
21 °F

Sunny.


Feels Like: 8 °F
Forecast: -3 / 20 °F
Wind: 14 mph from South

Location: St. Paul Downtown Holman Field

Current Time: Feb 28, 2015 at 3:01:52 PM

Latest Report: Feb 28, 2015 at 1:53 PM


Visibility: 10 mi

Pressure: 30.49 "Hg

Humidity: 47%

Dew point: 4 °F

Location of St. PaulLocation

Historic Weather in St. Paul — Graph

°F

St. Paul temperature yesterday

Maximum temperature yesterday: 16 °F (at 2:53 PM)
Minimum temperature yesterday: -3 °F (at 4:53 AM)
Average temperature yesterday: 6 °F

Past Weeks' High & Low Weather Summary

 TemperatureHumidityPressure
High32 °F (Feb 24, 10:53 AM)88% (Feb 20, 7:01 AM)30.86 "Hg (Feb 20, 7:01 AM)
Low-11 °F (Feb 23, 6:53 AM)27% (Feb 24, 1:53 PM)29.69 "Hg (Feb 24, 5:53 AM)
Average8 °F60%30.30 "Hg
* Reported Feb 13 1:53 PM — Feb 28 1:53 PM, St. Paul, Weather by CustomWeather, © 2015

Note: Actual official high and low records may vary slightly from our data, if they occured in-between our weather recording intervals... More about our weather records

Advertising

St. Paul weather history for previous 24 hours

 ConditionsComfort  
Time TempWeatherWind HumidityBarometerVisibility
1:53 PM
Sat, Feb 28
21 °FSunny.14 mph47%30.49 "Hg10 mi
12:53 PM21 °FSunny.20 mph43%30.52 "Hg10 mi
11:53 AM20 °FSunny.15 mph48%30.55 "Hg10 mi
10:53 AM15 °FSunny.12 mph53%30.58 "Hg10 mi
9:53 AM10 °FSunny.8 mph67%30.59 "Hg10 mi
8:53 AM5 °FSunny.5 mph72%30.61 "Hg10 mi
7:53 AM0 °FSunny.7 mph83%30.60 "Hg10 mi
6:53 AM-2 °FSunny.7 mph83%30.60 "Hg10 mi
5:53 AM-1 °FClear.7 mph79%30.60 "Hg10 mi
4:53 AM-1 °FClear.7 mph82%30.60 "Hg10 mi
3:53 AM-2 °FClear.7 mph86%30.59 "Hg10 mi
2:53 AM1 °FClear.8 mph79%30.60 "Hg10 mi
1:53 AM1 °FClear.6 mph83%30.60 "Hg10 mi
12:53 AM2 °FClear.6 mph80%30.60 "Hg10 mi
11:53 PM
Fri, Feb 27
3 °FClear.7 mph79%30.60 "Hg10 mi
10:53 PM4 °FClear.5 mph73%30.60 "Hg10 mi
9:53 PM5 °FClear.5 mph69%30.60 "Hg10 mi
8:53 PM7 °FClear.5 mph63%30.60 "Hg10 mi
7:53 PM9 °FClear.6 mph61%30.60 "Hg10 mi
6:53 PM11 °FClear.7 mph56%30.59 "Hg10 mi
5:53 PM12 °FSunny.7 mph56%30.57 "Hg10 mi
4:53 PM15 °FSunny.9 mph49%30.57 "Hg10 mi
3:53 PM16 °FSunny.10 mph47%30.57 "Hg10 mi
Weather by CustomWeather, © 2015

See weather overviewHow to use our weather pages